Location: Leeds
(37.2390°N, 113.3580°W)
Time: 17:16:20
(UTC-07:00)

Daily predictions for brighter satellites

Satellite Brightness Start Highest point End
(mag) Time Altitude Azimuth Time Altitude Azimuth Time Altitude Azimuth
Cosmos 1975 Rocket 3.0 18:40:04 10° N 18:44:24 88° E 18:48:43 10° S
Cosmos 1633 4.1 18:42:52 10° SE 18:45:18 17° E 18:47:44 10° NE
SKYMED 2 3.7 18:42:00 10° N 18:46:21 82° WNW 18:50:41 10° SSW
FREGAT/IRIS 3.8 18:46:41 10° SE 18:49:13 24° ENE 18:51:47 10° NNE
CZ-4 R/B 4.3 18:46:33 10° SSW 18:49:53 24° W 18:53:17 10° NW
ASTRO F (AKARI) 4.4 18:50:43 10° NNE 18:54:19 80° ESE 18:57:42 10° S
ALOS 3.1 18:53:56 10° SE 18:57:53 28° ENE 19:01:51 10° NNE
ASTRO E2 4.4 18:58:31 10° WSW 19:01:55 26° SSW 19:05:19 10° SE
ATLAS 2A CENTAUR R/B 3.3 19:01:06 10° SSW 19:02:40 14° SSE 19:05:15 10° SE
Cosmos 1536 Rocket 4.0 18:59:00 10° N 19:03:15 41° E 19:07:28 10° SSE
Cosmos 1818 3.5 19:01:57 10° SSW 19:07:22 80° ESE 19:12:51 10° NNE
SJ-6B 3.0 19:04:36 10° SSE 19:08:31 51° ENE 19:12:23 10° N
BREEZE-M DEB (TANK) 3.7 19:07:51 10° NNW 19:09:54 20° NE 19:12:05 14° ENE
Meteor 1-18 Rocket 4.3 19:05:56 10° N 19:11:31 83° W 19:17:07 10° S
SL-16 R/B 2.2 19:09:13 10° NNW 19:14:55 89° ENE 19:20:35 10° SSE
Resurs 01 Rocket 2.3 19:12:28 10° SE 19:16:22 32° ENE 19:20:17 10° N
Cosmos 1340 3.1 19:13:23 10° N 19:16:58 38° ENE 19:20:31 10° SSE
FengYun 1-2 T 4.5 19:12:02 10° SE 19:17:13 46° ENE 19:22:26 10° N
TSX-5 3.1 19:14:49 10° SSW 19:18:02 70° ESE 19:21:12 10° NNE
Nadezhda 1 Rocket 4.3 19:13:31 10° NNW 19:19:34 69° W 19:25:34 10° S
Cosmos 407 Rocket 3.9 19:15:16 10° SSW 19:20:27 68° WNW 19:25:45 10° NNE
DNEPR-1 R/B 3.4 19:16:31 10° NNW 19:20:45 85° ENE 19:25:03 10° SSE
Cosmos 676 Rocket 3.9 19:17:29 10° SSW 19:22:39 86° ESE 19:27:53 10° NNE
Cosmos 1238 Rocket 2.7 19:19:59 10° NNE 19:22:43 32° E 19:24:54 14° SE
Gbstr 26 Del rocket 3.0 19:20:55 10° SSW 19:24:38 46° SE 19:26:33 23° ENE
Tiangong 2 1.0 19:22:09 10° WNW 19:25:13 65° NNE 19:26:33 30° E
DELTA 2 R/B (1) 3.6 19:19:58 10° WNW 19:25:37 77° N 19:29:26 21° E
Meteor 1-19 Rocket 4.5 19:20:21 10° N 19:25:48 46° ENE 19:31:19 10° SSE
BREEZE-M DEB (TANK) 3.1 19:21:16 10° NW 19:29:05 82° NNE 19:30:57 23° ESE
Cosmos 1300 Rocket 3.5 19:27:56 10° S 19:32:17 65° E 19:36:41 10° NNE
Cosmos 2322 Rocket 2.7 19:27:12 10° NNW 19:32:44 62° WSW 19:38:15 10° S
Cosmos 1536 3.3 19:29:43 10° SSE 19:33:23 36° E 19:37:03 10° NNE
Cosmos 2181 Rocket 4.0 19:27:48 10° N 19:34:01 65° E 19:40:18 10° SSE
CZ-2D R/B 3.8 19:38:26 33° E 19:38:45 33° ENE 19:42:12 10° N
Resurs 1-3 3.8 19:34:39 10° SSE 19:38:50 47° ENE 19:43:03 10° N
Meteor 1-13 Rocket 4.1 19:34:53 10° N 19:40:26 72° E 19:46:04 10° SSE
Okean 1 4.2 19:37:15 10° NNW 19:41:13 52° W 19:45:09 10° S
Cosmos 1140 Rocket 3.3 19:40:15 10° SSW 19:45:22 84° ESE 19:50:33 10° NNE
Cosmos 1461 3.4 19:41:30 10° NW 19:45:29 58° WSW 19:49:32 10° SSE
Cosmos 2322 3.8 19:40:03 10° NNW 19:45:40 55° ENE 19:49:34 20° SE
FENGYUN 3A 3.6 19:40:41 10° SSE 19:46:05 86° ENE 19:51:32 10° NNW
ATLAS CENTAUR R/B 3.5 19:42:41 10° S 19:45:58 19° SSE 19:45:58 19° SSE
H-2A R/B 2.6 19:45:20 19° SSE 19:47:50 61° ENE 19:51:31 10° N
Cosmos 2074 Rocket 4.1 19:44:22 10° SSE 19:50:21 51° E 19:56:23 10° NNE
Cosmos 1709 Rocket 4.4 19:44:57 10° SSW 19:51:08 66° W 19:57:18 10° N
Cosmos 2184 Rocket 4.1 19:45:05 10° SSE 19:51:08 50° E 19:57:09 10° NNE
SAR-Lupe-4 4.2 19:54:59 40° NNE 19:54:59 40° NNE 19:57:38 10° N
SL-19 R/B 4.2 19:48:40 10° SSE 19:54:16 85° ENE 20:00:12 10° NNW
Spot 2 Rocket 3.4 19:49:53 10° SSE 19:54:55 82° ENE 20:00:00 10° NNW
Cosmos 614 Rocket 3.8 19:52:29 10° SSW 19:57:35 81° ESE 20:02:39 10° NNE
Helios 1A 3.3 19:58:09 45° NE 19:58:09 45° NE 20:01:44 10° N
COSMOS 2428 3.2 19:53:28 10° N 19:58:42 36° ENE 19:59:04 36° ENE
Cosmos 2237 4.4 19:53:47 10° N 19:59:19 47° ENE 20:00:37 40° E
Meteor 2-4 Rocket 3.5 19:54:10 10° N 19:59:42 65° E 20:04:57 10° SSE
Okean 1 Rocket 3.2 19:58:51 10° SSW 20:03:19 74° W 20:07:49 10° N
Cosmos 1850 Rocket 3.9 19:59:11 10° SSW 20:04:27 78° ESE 20:09:48 10° NNE
GPS 2-04 Rocket1 3.8 20:01:36 10° SW 20:05:18 34° SSE 20:05:18 34° SSE
Abrixas rocket 4.3 20:04:35 10° SSW 20:05:50 19° SSW 20:05:50 19° SSW
Cosmos 2237 Rocket 4.2 20:04:29 10° NNE 20:05:44 13° NNE 20:05:44 13° NNE
Envisat 4.3 20:13:16 26° NNE 20:13:16 26° NNE 20:15:50 10° N
SL-24 R/B 4.5 20:06:13 10° S 20:11:19 81° E 20:17:00 10° N
Meteor 1-11 Rocket 4.3 20:07:36 10° SSW 20:13:16 59° W 20:19:05 10° N
USA 229 DEB 4.2 20:12:26 10° NNW 20:19:08 42° NE 20:19:44 41° ENE
USA 229 4.2 20:12:32 10° NNW 20:19:14 41° NE 20:19:49 41° ENE
Cosmos 2285 Rocket 4.2 20:13:27 10° N 20:19:33 47° ENE 20:19:33 47° ENE
Cosmos 2219 3.1 20:14:03 10° SSW 20:19:48 83° ESE 20:23:09 26° NNE
Helios 1B rocket 2.5 20:20:32 75° SW 20:20:32 75° SW 20:24:23 10° SSW
Okean 1-7 Rocket 3.8 20:19:58 10° NNW 20:24:30 70° W 20:25:47 45° SSW
Cosmos 2360 Rocket 2.6 20:19:18 10° NNW 20:24:52 61° WSW 20:28:57 19° S
Cosmos 2219 Rocket 3.4 20:22:52 10° N 20:25:54 26° NNE 20:25:54 26° NNE
Cosmos 1025 Rocket 3.9 20:29:30 10° N 20:32:29 42° NNW 20:32:29 42° NNW
ALOS 4.4 20:31:23 10° SSW 20:35:15 26° W 20:39:08 10° NW
Meteor 2-13 Rocket 4.3 20:38:48 10° S 20:45:01 85° N 20:50:58 10° N
Resurs 01 Rocket 4.1 20:49:37 10° SW 20:52:52 20° W 20:56:08 10° NW
Cosmos 2333 Rocket 3.7 20:48:34 10° N 20:51:05 25° N 20:51:05 25° N
BREEZE-M DEB (TANK) 4.2 20:52:57 10° NW 20:56:45 72° N 20:56:45 72° N
